Regional Weather Roundup
Issued by NWS Upton, NY

Current Version | Previous Version | Text Only | Print | Product List | Glossary On
Versions: 1 2 3 4 5 6 7 8 9 10 11 12 13 14 15 16 17 18 19 20 21 22 23 24 25 26 27 28 29 30 31 32 33 34 35 36 37 38 39 40 41 42 43 44 45 46 47 48 49 50
000 ASUS41 KOKX 281605 RWROKX REGIONAL WEATHER ROUNDUP NATIONAL WEATHER SERVICE NEW YORK NY 1100 AM EST SUN DEC 28 2014 NOTE: "FAIR" INDICATES FEW OR NO CLOUDS BELOW 12,000 FEET WITH NO SIGNIFICANT WEATHER AND/OR OBSTRUCTIONS TO VISIBILITY. NYZ071-072-176-178-NJZ106-104-281700- NEW YORK CITY METRO AREA CITY SKY/WX TMP DP RH WIND PRES REMARKS CENTRAL PARK CLOUDY 47 40 76 VRB5G17 29.92F LAGUARDIA APRT CLOUDY 46 41 82 SW8 29.90F KENNEDY INTL CLOUDY 49 43 80 SW10 29.93F NEWARK/LIBERTY CLOUDY 46 43 89 SW7 29.91F BRNX BOT. GARD N/A 46 39 76 SW3 29.91S TETERBORO CLOUDY 46 43 89 SW8 29.90F $$ NYZ177-179-078>081-281700- LONG ISLAND NEW YORK CITY SKY/WX TMP DP RH WIND PRES REMARKS FARMINGDALE CLOUDY 47 43 86 W9 29.91F ISLIP DRIZZLE 47 42 83 W13 29.88F SHIRLEY CLOUDY 47 42 83 W10 29.90F WESTHAMPTON PTSUNNY 47 43 86 SW13 29.90S MONTAUK POINT N/A 50 43 77 SW8 29.87F $$ NYZ052-065-067-281700- HUDSON VALLEY CITY SKY/WX TMP DP RH WIND PRES REMARKS WHITE PLAINS CLOUDY 45 42 89 W5 29.87F NEWBURGH PTSUNNY 48 43 81 W14 29.89S MONTGOMERY CLOUDY 48 42 80 SW6 29.87S POUGHKEEPSIE CLOUDY 48 40 73 SW10 29.86F ALBANY CLOUDY 45 36 70 W15 29.89R $$ NJZ001-105-106-008-010-013-015-019>022-104-281700- NEW JERSEY CITY SKY/WX TMP DP RH WIND PRES REMARKS NEWARK/LIBERTY CLOUDY 46 43 89 SW7 29.91F TETERBORO CLOUDY 46 43 89 SW8 29.90F CALDWELL CLOUDY 45 41 86 VRB3 29.90F MORRISTOWN CLOUDY 46 43 87 W5 29.93S SOMERVILLE CLOUDY 46 42 86 MISG 29.91F FOG SUSSEX CLOUDY 45 41 86 VRB3 29.89F ANDOVER NOT AVBL TRENTON CLOUDY 49 40 71 W6 29.92F MILLVILLE CLOUDY 50 42 74 W5 29.95F ATLANTIC CITY CLOUDY 51 40 65 W9 29.95F WRIGHTSTOWN CLOUDY 47 43 87 W8 29.91F TOMS RIVER CLOUDY 48 45 87 CALM 29.92F BELMAR CLOUDY 46 39 76 W7 29.93S $$ PAZ047>061-062-071-281700- EASTERN PENNSYLVANIA CITY SKY/WX TMP DP RH WIND PRES REMARKS PHILADELPHIA CLOUDY 49 42 77 W7 29.95F ALLENTOWN CLOUDY 47 40 76 SW5 29.91F SCRANTON CLOUDY 47 40 76 SW7 29.90F $$ CTZ002-004>006-009-010-012-RIZ004-006-007-MAZ004-011-015-281700- SOUTHERN NEW ENGLAND IN CT CITY SKY/WX TMP DP RH WIND PRES REMARKS BRADLEY INTL CLOUDY 47 41 80 SW5 29.83F HARTFORD CLOUDY 45 43 93 S3 29.85F DANBURY CLOUDY 44 38 79 W10 29.89F WTRBRY/OXFORD CLOUDY 45 37 76 SW6 29.86F BRIDGEPORT CLOUDY 46 43 89 SW13 29.89S MERIDEN CLOUDY 44 42 93 S7 29.85F FOG NEW HAVEN CLOUDY 48 42 80 SW7 29.87F CHESTER PTSUNNY 45 43 93 SW9 29.85F FOG GROTON CLOUDY 45 43 93 W9 29.86F WILLIMANTIC CLOUDY 46 43 89 SW6 29.84F IN RI CITY SKY/WX TMP DP RH WIND PRES REMARKS PROVIDENCE CLOUDY 48 43 82 W7 29.83F BLOCK ISLAND CLOUDY 48 43 81 SW16G22 29.85F WESTERLY CLOUDY 46 43 89 W9 29.86F IN MA CITY SKY/WX TMP DP RH WIND PRES REMARKS BOSTON LGT RAIN 48 42 80 SW12 29.79F WORCESTER CLOUDY 43 41 93 W17G25 29.79F WESTFIELD CLOUDY 46 42 86 S5 29.82F PROVINCETOWN CLOUDY 46 43 87 SW13 29.81F NANTUCKET LGT RAIN 49 46 90 SW12 29.84F $$ ANZ330-335-338-340-345-350-353-355-281700- COASTAL MARINE OBSERVATIONS STATION/POSITION TIME SKY/WX TEMP WIND PRES VSBY WAVE AIR SEA DIR/SP/G HT/PER (UTC) (F) (DEG/KT/KT) (MB) (MI) (FT/S) NY HARB ENTRANCE 1600 46 45 250/ 12/ 12 1013.8 3/ 5 4S FIRE IS 1600 47 N/A 4/13 20S FIRE ISLAND 1500 49 49 1013.9 4/ 5 23SW MTP 1600 N/A 6/ 6 HUDSON CANYON 1600 54 55 250/ 23/ 27 1012.8 6/ 6 EXECUTION ROCKS 1600 45 42 220/ 12/ 14 N/A WESTERN LI SOUND 1600 44 220/ 12/ 14 N/A 0 CENTRAL LI SOUND 1500 45 44 250/ 10/ 12 N/A 1/ 3 EASTERN LI SOUND NOT AVBL ROBBINS REEF 1600 45 1011.7 $$ >>>>>>>>>>>>>>>>>>>>>>>>>>>> KEY <<<<<<<<<<<<<<<<<<<<<<<<<<< > < > SKY/WX - SKY CONDITION/PRESENT WEATHER < > TMP - TEMPERATURE IN FAHRENHEIT < > DP - DEWPOINT IN FAHRENHEIT < > RH - RELATIVE HUMIDITY IN PERCENT < > WIND - DIRECTION AND SPEED IN MPH < > PRES - MEAN SEA LEVEL PRESSURE IN INCHES OF HG < > WCI - WIND CHILL INDEX < > VSB - VISIBILITY IN MILES < > HX - HEAT INDEX < > TC - TEMPERATURE IN CELSIUS < > VRB - VARIABLE WIND DIRECTION < > < >>>>>>>>>>>>>>>>>>>>>>>>>>>> KEY <<<<<<<<<<<<<<<<<<<<<<<<<<<

USA.gov is the U.S. government's official web portal to all federal, state and local government web resources and services.